Location: Presov
(49.0000°N, 21.2500°E)
Time: 09:32:33
(UTC+02:00)

A-11 Canister half - Pass Details

Date: 24 April 2021
Orbit: 1526 x 1683 km, 47.3° (Epoch: 11 May)

Event Time Altitude Azimuth Distance (km) Brightness Sun altitude
Rises 20:06:01 0° 287° (WNW) 4,927 14.0 -4.6°
Reaches altitude 10° 20:09:15 10° 283° (WNW) 3,945 12.8 -5.1°
Maximum altitude 20:19:00 55° 210° (SSW) 1,965 9.6 -6.5°
Drops below altitude 10° 20:28:40 10° 137° (SE) 3,907 10.5 -7.9°
Enters shadow 20:29:24 - 136° (SE) 4,126 10.6 -8.0°
